Regional Weather Roundup
Issued by NWS

Home | Current Version | Previous Version | Graphics & Text | Print | Product List | Glossary On
Versions: 1 2 3 4 5 6 7 8 9 10 11 12 13 14 15 16 17 18 19 20 21 22 23 24 25 26 27 28 29 30 31 32 33 34 35 36 37 38 39 40 41 42 43 44 45 46 47 48 49 50
000
ASUS45 KSLC 050810
RWRUT

UTAH REGIONAL WEATHER ROUNDUP
NATIONAL WEATHER SERVICE SALT LAKE CITY UT
200 AM MDT TUE MAY 05 2015

UTZ001>011-023>025-050900-

NORTHERN UTAH

CITY           SKY/WX    TMP DP  RH WIND       PRES   REMARKS
BRIGHAM CITY   CLOUDY    56  47  72 CALM      29.88S
HILL AFB       MOCLDY    54  45  72 E10       29.90S
LOGAN          PTCLDY    49  44  83 N6        29.89S
OGDEN          CLOUDY    56  44  64 S8        29.88F
PROVO AIRPORT  CLOUDY    55  46  71 CALM      29.89F
SALT LAKE CITY PTCLDY    59  45  59 SE3       29.87F
VERNAL         CLOUDY    57  40  52 CALM      29.93S
WENDOVER       MOCLDY    59  37  44 NW7       29.87F
HEBER CITY     CLOUDY    48  41  76 CALM      29.94F
WEST JORDAN    PTCLDY    55  46  71 S7        29.90S

$$

UTZ012>022-026-027-050900-

SOUTHERN/CENTRAL UTAH

CITY           SKY/WX    TMP DP  RH WIND       PRES   REMARKS
BLANDING       CLOUDY    51  48  89 CALM      30.03F
BRYCE CANYON   MOCLDY    43  40  89 N3        30.02S
CEDAR CITY     LGT RAIN  50  47  89 CALM      29.96S
DELTA          CLOUDY    52  45  76 SE6       29.90S
HANKSVILLE     CLOUDY    55  50  82 CALM      29.91S
MILFORD        LGT RAIN  54  47  77 SW10      29.93S
MOAB/CYNLANDS  MOCLDY    58  51  78 CALM      29.86F
PRICE          CLOUDY    54  45  71 S7        29.95S
ST GEORGE      CLOUDY    61  54  77 CALM      29.90S
KANAB          MOCLDY    45  43  93 CALM      29.98S

$$

REGIONAL REPORTS     COLORADO/ARIZONA

CITY           SKY/WX    TMP DP  RH WIND       PRES   REMARKS
CRAIG, CO      PTCLDY    45  38  76 CALM      29.98S
GRAND JUNCTION CLOUDY    57  44  62 E9        29.90F
RIFLE          MOCLDY    47  42  83 S7        29.94F
MONTROSE       CLOUDY    51  45  79 SE8       29.97F
CORTEZ         CLOUDY    52  45  77 SE8       29.97F
PAGE, AZ       LGT RAIN  56  50  80 SW6       29.90F
GRAND CANYON   MOCLDY    35  35 100 CALM      30.00F FOG
KINGMAN        CLOUDY    56  48  74 CALM      29.95R
FLAGSTAFF      CLOUDY    43  41  93 SW5       30.02F

$$

REGIONAL REPORTS    NEVADA/IDAHO/WYOMING

CITY           SKY/WX    TMP DP  RH WIND       PRES   REMARKS
LAS VEGAS, NV  CLOUDY    68  47  46 SE7       29.81F
ELY            CLOUDY    45  34  65 S5        29.97F
ELKO           PTCLDY    44  36  73 SW5       29.91F
POCATELLO, ID  CLEAR     54  41  61 E5        29.88F
BURLEY         MOCLDY    56  39  53 S9        29.83F
EVANSTON, WY   PTCLDY    44  37  76 NE3       30.00S
ROCK SPRINGS   PTCLDY    44  38  79 E7        30.00F
KEMMERER       MOCLDY    43  37  81 N8        30.03F

$$


USA.gov is the U.S. government's official web portal to all federal, state and local government web resources and services.